Weather History for Canby, MN

Change the Weather History Date:

Friday, October 28, 2011

  Actual Average (KMML) Record (KMML)
Temperature  
Mean Temperature 44 °F -  
Max Temperature 54 °F 54 °F 76 °F (1966)
Min Temperature 35 °F 31 °F 10 °F (1967)
Degree Days  
Heating Degree Days 20    
Moisture  
Dew Point 25 °F    
Average Humidity 50    
Maximum Humidity 79    
Minimum Humidity 26    
Precipitation  
Precipitation 0.00 in - - ()
Sea Level Pressure  
Sea Level Pressure 30.07 in    
Wind  
Wind Speed 11 mph (West)    
Max Wind Speed 24 mph    
Max Gust Speed 31 mph    
Visibility 10 miles    
Events      
Averages and records for this station are not official NWS values.
T = Trace of Precipitation, MM = Missing Value Source: NWS Daily Summary

Daily Weather History Graph

Daily Weather History Graph

Search for Another Location

Airport:

Trip Planner

Search our weather history database for the weather conditions in past years. The results will help you decide how hot, cold, wet, or windy it might be!

Date:

Astronomy

Oct. 28, 2011 Rise Set
Actual Time 7:57 AM CDT 6:19 PM CDT
Civil Twilight 7:27 AM CDT 6:49 PM CDT
Nautical Twilight 6:52 AM CDT 7:24 PM CDT
Astronomical Twilight 6:18 AM CDT 7:58 PM CDT
Moon 10:21 AM CDT (10/28) 7:36 PM CDT (10/28)
Length of Visible Light 11h 22m
Length of Day
10h 22m
Waxing Crescent, 5% of the Moon is Illuminated
Oct 28
Waxing Crescent
Nov 2
First Quarter
Nov 10
Full
Nov 18
Last Quarter
Nov 25
New

Hourly Weather History & Observations

Time (CDT) Temp. Windchill Dew Point Humidity Pressure Visibility Wind Dir Wind Speed Gust Speed Precip Events Conditions
12:14 AM 41.7 °F 37.3 °F 27.3 °F 57% 30.01 in 10.0 mi South 6.9 mph - N/A   Overcast
12:35 AM 44.1 °F 38.6 °F 25.7 °F 49% 30.01 in 10.0 mi SSW 10.4 mph - N/A   Overcast
12:55 AM 43.9 °F 38.3 °F 25.7 °F 49% 30.01 in 10.0 mi SSW 10.4 mph - N/A   Overcast
1:14 AM 44.1 °F 38.6 °F 25.7 °F 49% 30.01 in 10.0 mi SW 10.4 mph - N/A   Overcast
1:35 AM 44.6 °F 38.1 °F 25.5 °F 47% 30.01 in 10.0 mi SSW 13.8 mph 19.6 mph N/A   Overcast
1:55 AM 44.8 °F 38.7 °F 25.3 °F 47% 30.01 in 10.0 mi SW 12.7 mph 18.4 mph N/A   Overcast
2:15 AM 43.9 °F 38.3 °F 25.5 °F 48% 30.01 in 10.0 mi SW 10.4 mph - N/A   Overcast
2:35 AM 44.1 °F 38.1 °F 25.7 °F 49% 30.01 in 10.0 mi SW 11.5 mph - N/A   Overcast
3:14 AM 43.2 °F 37.4 °F 26.2 °F 51% 30.01 in 10.0 mi WSW 10.4 mph 17.3 mph N/A   Overcast
3:35 AM 42.3 °F 35.9 °F 26.4 °F 54% 30.02 in 10.0 mi WSW 11.5 mph - N/A   Overcast
3:55 AM 41.5 °F 35.9 °F 27.3 °F 57% 30.03 in 10.0 mi West 9.2 mph - N/A   Overcast
4:15 AM 40.6 °F 35.4 °F 27.9 °F 60% 30.03 in 10.0 mi West 8.1 mph - N/A   Mostly Cloudy
4:35 AM 39.9 °F 33.9 °F 29.3 °F 66% 30.03 in 10.0 mi WNW 9.2 mph - N/A   Scattered Clouds
5:14 AM 37.4 °F 30.8 °F 30.4 °F 76% 30.04 in 10.0 mi West 9.2 mph - N/A   Clear
5:35 AM 37.4 °F 31.4 °F 31.1 °F 78% 30.04 in 10.0 mi West 8.1 mph - N/A   Clear
5:55 AM 37.9 °F 30.9 °F 32.0 °F 79% 30.05 in 10.0 mi WNW 10.4 mph - N/A   Clear
6:15 AM 38.5 °F 31.1 °F 32.0 °F 78% 30.05 in 10.0 mi WNW 11.5 mph - N/A   Clear
6:35 AM 37.9 °F 30.9 °F 32.0 °F 79% 30.06 in 10.0 mi West 10.4 mph - N/A   Clear
6:55 AM 37.6 °F 31.0 °F 31.3 °F 78% 30.06 in 10.0 mi West 9.2 mph - N/A   Clear
7:15 AM 37.0 °F 29.8 °F 30.7 °F 78% 30.06 in 10.0 mi West 10.4 mph - N/A   Clear
7:35 AM 36.7 °F 28.9 °F 30.0 °F 77% 30.07 in 10.0 mi West 11.5 mph - N/A   Clear
7:55 AM 35.8 °F 28.8 °F 29.3 °F 77% 30.07 in 10.0 mi West 9.2 mph - N/A   Clear
8:15 AM 35.6 °F 28.6 °F 29.1 °F 77% 30.08 in 10.0 mi West 9.2 mph - N/A   Clear
8:35 AM 36.9 °F 30.1 °F 28.8 °F 72% 30.09 in 10.0 mi West 9.2 mph - N/A   Clear
8:55 AM 39.4 °F 32.3 °F 28.4 °F 65% 30.10 in 10.0 mi West 11.5 mph - N/A   Clear
9:14 AM 41.4 °F 35.2 °F 27.7 °F 58% 30.10 in 10.0 mi West 10.4 mph 17.3 mph N/A   Clear
9:35 AM 43.0 °F 36.0 °F 27.3 °F 54% 30.10 in 10.0 mi West 13.8 mph - N/A   Clear
10:15 AM 46.0 °F 39.9 °F 27.3 °F 48% 30.10 in 10.0 mi West 13.8 mph 17.3 mph N/A   Clear
10:35 AM 47.3 °F - 27.0 °F 45% 30.11 in 10.0 mi WNW 13.8 mph - N/A   Clear
10:55 AM 48.7 °F - 26.4 °F 42% 30.11 in 10.0 mi WNW 16.1 mph - N/A   Clear
11:14 AM 49.8 °F - 24.1 °F 37% 30.11 in 10.0 mi WNW 13.8 mph 23.0 mph N/A   Clear
11:35 AM 50.9 °F - 23.2 °F 34% 30.10 in 10.0 mi WNW 16.1 mph - N/A   Clear
11:55 AM 51.3 °F - 22.6 °F 33% 30.11 in 10.0 mi WNW 24.2 mph 28.8 mph N/A   Clear
12:35 PM 52.7 °F - 21.4 °F 29% 30.10 in 10.0 mi West 19.6 mph 31.1 mph N/A   Clear
12:55 PM 54.3 °F - 21.9 °F 28% 30.09 in 10.0 mi West 24.2 mph 29.9 mph N/A   Clear
1:15 PM 54.3 °F - 21.7 °F 28% 30.09 in 10.0 mi West 18.4 mph 27.6 mph N/A   Clear
1:35 PM 54.3 °F - 21.2 °F 28% 30.08 in 10.0 mi WNW 16.1 mph 27.6 mph N/A   Clear
1:55 PM 54.1 °F - 20.1 °F 26% 30.08 in 10.0 mi NW 17.3 mph 29.9 mph N/A   Clear
2:15 PM 54.5 °F - 21.7 °F 28% 30.07 in 10.0 mi WNW 19.6 mph 26.5 mph N/A   Clear
2:35 PM 54.0 °F - 21.4 °F 28% 30.07 in 10.0 mi WNW 20.7 mph 29.9 mph N/A   Clear
2:54 PM 53.8 °F - 22.1 °F 29% 30.06 in 10.0 mi WNW 16.1 mph 20.7 mph N/A   Clear
3:15 PM 54.0 °F - 22.3 °F 29% 30.06 in 10.0 mi WNW 18.4 mph 28.8 mph N/A   Clear
3:35 PM 53.2 °F - 21.2 °F 29% 30.06 in 10.0 mi WNW 19.6 mph 31.1 mph N/A   Clear
3:54 PM 52.7 °F - 22.1 °F 30% 30.06 in 10.0 mi NW 16.1 mph 25.3 mph N/A   Clear
4:15 PM 52.7 °F - 23.0 °F 31% 30.06 in 10.0 mi NW 12.7 mph 21.9 mph N/A   Clear
4:35 PM 52.3 °F - 23.4 °F 32% 30.06 in 10.0 mi WNW 19.6 mph 23.0 mph N/A   Clear
4:54 PM 51.8 °F - 22.6 °F 32% 30.07 in 10.0 mi WNW 19.6 mph 24.2 mph N/A   Scattered Clouds
5:34 PM 50.5 °F - 22.8 °F 34% 30.07 in 10.0 mi WNW 16.1 mph 23.0 mph N/A   Clear
5:55 PM 49.3 °F - 22.8 °F 35% 30.07 in 10.0 mi WNW 15.0 mph 19.6 mph N/A   Clear
6:15 PM 47.7 °F - 22.8 °F 38% 30.08 in 10.0 mi WNW 11.5 mph - N/A   Clear
6:35 PM 44.6 °F 40.2 °F 23.0 °F 43% 30.08 in 10.0 mi West 8.1 mph - N/A   Clear
6:55 PM 42.3 °F 39.4 °F 23.9 °F 48% 30.09 in 10.0 mi West 4.6 mph - N/A   Clear
7:15 PM 40.6 °F 36.7 °F 23.7 °F 51% 30.09 in 10.0 mi West 5.8 mph - N/A   Clear
7:35 PM 38.1 °F 33.7 °F 23.9 °F 57% 30.09 in 10.0 mi West 5.8 mph - N/A   Clear
7:55 PM 38.7 °F 33.6 °F 23.9 °F 55% 30.10 in 10.0 mi West 6.9 mph - N/A   Clear
8:15 PM 37.8 °F 33.3 °F 23.7 °F 57% 30.10 in 10.0 mi West 5.8 mph - N/A   Clear
8:35 PM 37.4 °F 32.8 °F 23.9 °F 58% 30.10 in 10.0 mi West 5.8 mph - N/A   Clear
8:54 PM 37.0 °F 31.6 °F 23.9 °F 59% 30.09 in 10.0 mi West 6.9 mph - N/A   Clear
9:15 PM 37.0 °F 31.6 °F 23.9 °F 59% 30.09 in 10.0 mi West 6.9 mph - N/A   Clear
9:35 PM 35.4 °F 29.7 °F 23.7 °F 62% 30.09 in 10.0 mi West 6.9 mph - N/A   Clear
9:55 PM 35.4 °F 31.5 °F 23.9 °F 63% 30.08 in 10.0 mi West 4.6 mph - N/A   Clear
10:15 PM 36.0 °F 30.3 °F 24.6 °F 63% 30.09 in 10.0 mi West 6.9 mph - N/A   Clear
10:35 PM 34.3 °F 30.2 °F 24.6 °F 68% 30.08 in 10.0 mi West 4.6 mph - N/A   Clear
10:55 PM 35.1 °F 29.3 °F 24.4 °F 65% 30.09 in 10.0 mi West 6.9 mph - N/A   Clear
11:15 PM 35.1 °F 29.3 °F 24.6 °F 66% 30.08 in 10.0 mi WSW 6.9 mph - N/A   Clear
11:35 PM 35.1 °F 29.3 °F 24.8 °F 66% 30.08 in 10.0 mi West 6.9 mph - N/A   Clear
11:55 PM 33.8 °F 28.6 °F 24.8 °F 70% 30.08 in 10.0 mi West 5.8 mph - N/A   Clear